CST,Max TemperatureF,Mean TemperatureF,Min TemperatureF,Max Dew PointF,MeanDew PointF,Min DewpointF,Max Humidity, Mean Humidity, Min Humidity, Max Sea Level PressureIn, Mean Sea Level PressureIn, Min Sea Level PressureIn, Max VisibilityMiles, Mean VisibilityMiles, Min VisibilityMiles, Max Wind SpeedMPH, Mean Wind SpeedMPH, Max Gust SpeedMPH,PrecipitationIn, CloudCover, Events, WindDirDegrees
2012-11-1,46,39,32,37,31,25,87,69,49,30.04,29.99,29.94,10,10,5,18,10,26,0.00,3,,335
2012-11-2,41,36,30,28,26,23,80,70,57,30.13,30.07,30.03,10,10,10,13,7,,0.00,3,,77
2012-11-3,46,37,28,36,30,27,93,71,53,30.20,30.17,30.12,10,10,7,7,3,,0.01,7,Rain,27
2012-11-4,48,40,33,39,35,32,93,81,58,30.18,30.13,30.07,10,7,1,9,4,,0.14,7,Rain,124
2012-11-5,41,39,37,37,36,36,93,90,87,30.15,30.09,29.94,5,2,1,20,5,24,0.11,8,Rain,286
2012-11-6,44,40,37,36,34,32,93,75,66,30.01,29.90,29.83,10,9,2,25,17,33,0.06,7,Rain,291
2012-11-7,46,39,32,34,32,28,93,75,53,30.13,30.06,30.01,10,10,10,16,9,24,0.00,2,,253
2012-11-8,57,46,35,36,33,32,93,70,38,30.00,29.93,29.88,10,9,5,22,13,28,0.00,0,,222
2012-11-9,55,44,32,41,37,32,100,81,58,29.97,29.89,29.77,10,6,0,18,9,25,0.00,5,Fog,62
2012-11-10,68,58,46,54,46,37,94,68,33,29.76,29.57,29.45,10,8,3,28,16,36,0.44,5,Rain-Thunderstorm,170
2012-11-11,46,34,21,43,22,12,93,74,59,29.99,29.83,29.60,10,10,5,24,17,31,0.01,5,Snow,288
2012-11-12,30,24,19,16,14,12,80,67,51,30.30,30.11,29.99,10,10,5,23,17,31,0.00,4,Snow,273
2012-11-13,46,32,19,28,21,14,86,62,32,30.32,30.27,30.22,10,10,10,15,8,20,0.00,3,,189
2012-11-14,51,42,32,32,29,27,87,66,38,30.25,30.20,30.13,10,10,10,12,6,,0.00,4,,206
2012-11-15,48,37,26,32,28,19,87,68,50,30.46,30.27,30.12,10,10,10,20,12,23,0.00,0,,303
2012-11-16,46,32,17,30,20,12,86,62,32,30.46,30.38,30.27,10,10,10,14,5,17,0.00,0,,166
2012-11-17,57,46,35,34,32,30,87,60,36,30.29,30.20,30.13,10,10,10,22,14,29,0.00,1,,171
2012-11-18,59,50,41,34,31,30,66,51,36,30.14,30.08,30.03,10,10,10,20,15,25,0.00,1,,177
2012-11-19,59,49,37,37,35,34,87,60,42,30.11,30.03,29.98,10,10,7,16,11,22,0.00,1,,215
2012-11-20,59,42,26,36,28,19,100,63,23,30.19,30.12,30.03,10,8,0,16,8,21,0.00,0,Fog,225
2012-11-21,69,56,44,43,36,32,66,51,25,30.03,29.89,29.71,10,10,10,23,14,29,0.00,0,,198
2012-11-22,55,42,30,43,34,21,81,66,50,30.12,29.83,29.65,10,10,10,36,18,45,0.00,3,,276
2012-11-23,30,21,12,19,12,9,86,64,47,30.39,30.31,30.12,10,10,10,40,24,47,0.00,3,Snow,316
2012-11-24,33,22,12,19,14,7,86,65,48,30.34,30.04,29.79,10,10,10,17,7,24,0.00,4,,195
2012-11-25,35,30,24,27,22,18,86,72,56,30.16,29.98,29.82,10,10,10,21,11,31,0.00,3,,323
2012-11-26,26,19,12,18,8,3,79,62,43,30.41,30.33,30.17,10,10,10,20,9,26,0.00,1,,316
2012-11-27,37,26,15,25,18,9,86,70,56,30.33,30.20,30.09,10,10,10,21,12,26,0.00,0,,244
2012-11-28,42,28,14,27,20,10,93,72,46,30.33,30.21,30.03,10,8,2,15,6,18,0.00,0,,192
2012-11-29,44,34,23,27,24,19,93,71,49,30.03,29.99,29.96,10,9,5,14,7,,0.00,1,,69
2012-11-30,41,31,21,32,27,19,100,83,65,30.11,30.04,29.98,7,5,2,15,8,20,0.00,0,,76